• Em Portugal
  • Lista de países
  • Para 7 dias
  • Temperatura da água
  • Mapas de satélite
  • Mapa do tempo
  • Widgets de tempo
  • user-avatar
    Iniciar Sessão

    Previsão horária em Sarajevo

    Hoje, 23 Agosto, Quarta-feira

    Tempo Temperatura Precipitação Vento Pressão Humidade
    00:00 +10°C° 0 mm 1 m/s 689 mmHg 74%
    01:00 +10°C° 0 mm 1 m/s 689 mmHg 75%
    02:00 +10°C° 0 mm 1 m/s 689 mmHg 75%
    03:00 +9°C° 0 mm 1 m/s 689 mmHg 76%
    04:00 +9°C° 0 mm 1 m/s 689 mmHg 77%
    05:00 +11°C° 0 mm 1 m/s 689 mmHg 71%
    06:00 +13°C° 0 mm 1 m/s 690 mmHg 65%
    07:00 +14°C° 0 mm 1 m/s 690 mmHg 59%
    08:00 +18°C° 0 mm 1 m/s 691 mmHg 51%
    09:00 +20°C° 0 mm 1 m/s 692 mmHg 43%
    10:00 +23°C° 0 mm 1 m/s 692 mmHg 34%
    11:00 +24°C° 0 mm 1 m/s 692 mmHg 32%
    12:00 +25°C° 0 mm 1 m/s 692 mmHg 31%
    13:00 +26°C° 0 mm 1 m/s 693 mmHg 29%
    14:00 +26°C° 0 mm 2 m/s 692 mmHg 30%
    15:00 +25°C° 0 mm 2 m/s 692 mmHg 31%
    16:00 +25°C° 0 mm 2 m/s 692 mmHg 33%
    17:00 +22°C° 0 mm 1 m/s 691 mmHg 41%
    18:00 +19°C° 0 mm 1 m/s 691 mmHg 49%
    19:00 +16°C° 0 mm 1 m/s 690 mmHg 57%
    20:00 +15°C° 0 mm 1 m/s 691 mmHg 58%
    21:00 +14°C° 0 mm 1 m/s 691 mmHg 59%
    22:00 +14°C° 0 mm 1 m/s 691 mmHg 60%
    23:00 +14°C° 0 mm 1 m/s 691 mmHg 59%

    Amanhã, 24 Agosto, Quinta-feira

    Tempo Temperatura Precipitação Vento Pressão Humidade
    00:00 +13°C° 0 mm 1 m/s 691 mmHg 58%
    01:00 +13°C° 0 mm 1 m/s 691 mmHg 58%
    02:00 +13°C° 0 mm 1 m/s 691 mmHg 58%
    03:00 +13°C° 0 mm 1 m/s 691 mmHg 57%
    04:00 +13°C° 0 mm 1 m/s 691 mmHg 57%
    05:00 +15°C° 0 mm 1 m/s 691 mmHg 55%
    06:00 +16°C° 0 mm 1 m/s 692 mmHg 53%
    07:00 +19°C° 0 mm 1 m/s 692 mmHg 51%
    08:00 +22°C° 0 mm 1 m/s 693 mmHg 45%
    09:00 +25°C° 0 mm 1 m/s 693 mmHg 39%
    10:00 +25°C° 0 mm 0 m/s 694 mmHg 33%
    11:00 +28°C° 0 mm 1 m/s 694 mmHg 32%
    12:00 +28°C° 0 mm 1 m/s 694 mmHg 30%
    13:00 +29°C° 0 mm 2 m/s 694 mmHg 29%
    14:00 +29°C° 0 mm 2 m/s 694 mmHg 31%
    15:00 +28°C° 0 mm 2 m/s 693 mmHg 32%
    16:00 +28°C° 0 mm 2 m/s 693 mmHg 34%
    17:00 +25°C° 0 mm 1 m/s 693 mmHg 42%
    18:00 +22°C° 0 mm 1 m/s 692 mmHg 50%
    19:00 +17°C° 0 mm 0 m/s 692 mmHg 58%
    20:00 +19°C° 0 mm 1 m/s 692 mmHg 59%
    21:00 +18°C° 0 mm 1 m/s 692 mmHg 60%
    22:00 +18°C° 0 mm 1 m/s 692 mmHg 60%
    23:00 +16°C° 0 mm 1 m/s 692 mmHg 60%

    Depois de amanhã, 25 Agosto, Sexta-feira

    Tempo Temperatura Precipitação Vento Pressão Humidade
    00:00 +16°C° 0 mm 1 m/s 692 mmHg 59%
    01:00 +16°C° 0 mm 1 m/s 692 mmHg 59%
    02:00 +16°C° 0 mm 1 m/s 692 mmHg 59%
    03:00 +16°C° 0 mm 1 m/s 692 mmHg 58%
    04:00 +15°C° 0 mm 1 m/s 692 mmHg 58%
    05:00 +18°C° 0 mm 1 m/s 692 mmHg 56%
    06:00 +20°C° 0 mm 1 m/s 693 mmHg 53%
    07:00 +21°C° 0 mm 1 m/s 693 mmHg 51%
    08:00 +24°C° 0 mm 1 m/s 694 mmHg 44%
    09:00 +27°C° 0 mm 1 m/s 694 mmHg 37%
    10:00 +30°C° 0 mm 1 m/s 695 mmHg 30%
    11:00 +30°C° 0 mm 1 m/s 695 mmHg 29%
    12:00 +31°C° 0 mm 1 m/s 694 mmHg 27%
    13:00 +32°C° 0 mm 1 m/s 694 mmHg 26%
    14:00 +31°C° 0 mm 1 m/s 694 mmHg 27%
    15:00 +31°C° 0 mm 1 m/s 694 mmHg 28%
    16:00 +30°C° 0 mm 1 m/s 693 mmHg 30%
    17:00 +27°C° 0 mm 1 m/s 693 mmHg 37%
    18:00 +24°C° 0 mm 1 m/s 692 mmHg 44%
    19:00 +19°C° 0 mm 0 m/s 692 mmHg 52%
    20:00 +21°C° 0 mm 1 m/s 692 mmHg 53%
    21:00 +20°C° 0 mm 1 m/s 692 mmHg 53%
    22:00 +19°C° 0 mm 1 m/s 692 mmHg 54%
    23:00 +19°C° 0 mm 1 m/s 692 mmHg 54%

    26 Agosto, Sábado

    Tempo Temperatura Precipitação Vento Pressão Humidade
    00:00 +19°C° 0 mm 1 m/s 691 mmHg 54%
    01:00 +19°C° 0 mm 1 m/s 691 mmHg 54%
    02:00 +18°C° 0 mm 1 m/s 691 mmHg 54%
    03:00 +18°C° 0 mm 1 m/s 691 mmHg 53%
    04:00 +18°C° 0 mm 1 m/s 691 mmHg 53%
    05:00 +20°C° 0 mm 1 m/s 691 mmHg 51%
    06:00 +21°C° 0 mm 1 m/s 692 mmHg 49%
    07:00 +23°C° 0 mm 1 m/s 692 mmHg 47%
    08:00 +25°C° 0 mm 1 m/s 693 mmHg 41%
    09:00 +28°C° 0 mm 1 m/s 693 mmHg 35%
    10:00 +31°C° 0 mm 1 m/s 694 mmHg 29%
    11:00 +32°C° 0 mm 1 m/s 693 mmHg 27%
    12:00 +32°C° 0 mm 1 m/s 693 mmHg 25%
    13:00 +33°C° 0 mm 1 m/s 693 mmHg 23%
    14:00 +32°C° 0 mm 1 m/s 693 mmHg 25%
    15:00 +32°C° 0 mm 2 m/s 692 mmHg 26%
    16:00 +31°C° 0 mm 2 m/s 692 mmHg 28%
    17:00 +28°C° 0 mm 1 m/s 692 mmHg 35%
    18:00 +25°C° 0 mm 1 m/s 691 mmHg 42%
    19:00 +20°C° 0 mm 0 m/s 691 mmHg 49%
    20:00 +19°C° 0 mm 0 m/s 691 mmHg 49%
    21:00 +21°C° 0 mm 1 m/s 691 mmHg 50%
    22:00 +20°C° 0 mm 1 m/s 691 mmHg 50%
    23:00 +20°C° 0 mm 1 m/s 691 mmHg 49%

    27 Agosto, Domingo

    Tempo Temperatura Precipitação Vento Pressão Humidade
    00:00 +20°C° 0 mm 1 m/s 690 mmHg 49%
    01:00 +19°C° 0 mm 1 m/s 690 mmHg 48%
    02:00 +19°C° 0 mm 1 m/s 690 mmHg 47%
    03:00 +19°C° 0 mm 1 m/s 690 mmHg 46%
    04:00 +19°C° 0 mm 1 m/s 690 mmHg 46%
    05:00 +20°C° 0 mm 1 m/s 690 mmHg 45%
    06:00 +22°C° 0 mm 1 m/s 690 mmHg 44%
    07:00 +23°C° 0 mm 1 m/s 691 mmHg 43%
    08:00 +26°C° 0 mm 1 m/s 691 mmHg 38%
    09:00 +29°C° 0 mm 1 m/s 692 mmHg 33%
    10:00 +32°C° 0 mm 1 m/s 692 mmHg 28%
    11:00 +32°C° 0 mm 1 m/s 692 mmHg 27%
    12:00 +33°C° 0 mm 1 m/s 692 mmHg 26%
    13:00 +33°C° 0 mm 1 m/s 692 mmHg 25%
    14:00 +34°C° 0 mm 2 m/s 691 mmHg 26%
    15:00 +32°C° 0 mm 2 m/s 691 mmHg 28%
    16:00 +32°C° 0 mm 2 m/s 690 mmHg 29%
    17:00 +28°C° 0 mm 1 m/s 690 mmHg 36%
    18:00 +25°C° 0 mm 1 m/s 689 mmHg 43%
    19:00 +20°C° 0 mm 0 m/s 689 mmHg 50%
    20:00 +22°C° 0 mm 1 m/s 689 mmHg 52%
    21:00 +21°C° 0 mm 1 m/s 689 mmHg 53%
    22:00 +21°C° 0 mm 1 m/s 689 mmHg 54%
    23:00 +20°C° 0 mm 1 m/s 689 mmHg 55%

    28 Agosto, Segunda-feira

    Tempo Temperatura Precipitação Vento Pressão Humidade
    00:00 +20°C° 0 mm 1 m/s 689 mmHg 55%
    01:00 +20°C° 0 mm 1 m/s 689 mmHg 55%
    02:00 +20°C° 0 mm 1 m/s 688 mmHg 55%
    03:00 +19°C° 0 mm 1 m/s 688 mmHg 54%
    04:00 +19°C° 0 mm 1 m/s 688 mmHg 54%
    05:00 +21°C° 0 mm 1 m/s 689 mmHg 52%
    06:00 +22°C° 0 mm 1 m/s 689 mmHg 50%
    07:00 +24°C° 0 mm 1 m/s 690 mmHg 47%
    08:00 +27°C° 0 mm 1 m/s 690 mmHg 41%
    09:00 +29°C° 0 mm 1 m/s 690 mmHg 35%
    10:00 +32°C° 0 mm 1 m/s 691 mmHg 29%
    11:00 +32°C° 0 mm 1 m/s 691 mmHg 28%
    12:00 +34°C° 0 mm 2 m/s 690 mmHg 27%
    13:00 +34°C° 0 mm 2 m/s 690 mmHg 26%
    14:00 +34°C° 0 mm 2 m/s 690 mmHg 28%
    15:00 +32°C° 0 mm 2 m/s 690 mmHg 30%
    16:00 +31°C° 0 mm 2 m/s 689 mmHg 32%
    17:00 +29°C° 0 mm 2 m/s 689 mmHg 39%
    18:00 +26°C° 0 mm 2 m/s 689 mmHg 46%
    19:00 +24°C° 0 mm 1 m/s 689 mmHg 53%
    20:00 +23°C° 0,2 mm 1 m/s 689 mmHg 57%
    21:00 +21°C° 0,2 mm 2 m/s 689 mmHg 62%
    22:00 +20°C° 0,2 mm 2 m/s 689 mmHg 66%
    23:00 +19°C° 0,1 mm 2 m/s 689 mmHg 69%
    Mostrar mais